Beaver Bay, MN

10:41 PM CDT on September 26, 2016 (GMT -0500)
Silver Bay Municipal

Weather History for KBFW - February, 2012

Change the Weather History Date:

Friday, February 10, 2012

  Actual Average Record
Temperature  
Mean Temperature 5 °F -  
Max Temperature 15 °F 24 °F 39 °F (2009)
Min Temperature -5 °F 2 °F -22 °F (2014)
Degree Days  
Heating Degree Days 60    
Moisture  
Dew Point -17 °F    
Average Humidity 38    
Maximum Humidity 60    
Minimum Humidity 16    
Precipitation  
Precipitation 0.00 in - - ()
Sea Level Pressure  
Sea Level Pressure 30.21 in    
Wind  
Wind Speed 9 mph (North)    
Max Wind Speed 14 mph    
Max Gust Speed 25 mph    
Visibility 10 miles    
Events Snow    
Averages and records for this station are not official NWS values.
T = Trace of Precipitation, MM = Missing Value Source: NWS Daily Summary

Daily Weather History Graph

Daily Weather History Graph

Search for Another Location

Airport or City:

Trip Planner

Search our weather history database for the weather conditions in past years. The results will help you decide how hot, cold, wet, or windy it might be!

Date:

Astronomy

Feb. 10, 2012 Rise Set
Actual Time 7:19 AM CST 5:21 PM CST
Civil Twilight 6:47 AM CST 5:53 PM CST
Nautical Twilight 6:11 AM CST 6:29 PM CST
Astronomical Twilight 5:35 AM CST 7:04 PM CST
Moon 9:19 PM CST (2/10) 8:10 AM CST (2/10)
Length of Visible Light 11h 05m
Length of Day
10h 01m
Waning Gibbous, 90% of the Moon is Illuminated
Feb 10
Waning Gibbous
Feb 14
Last Quarter
Feb 21
New
Feb 29
First Quarter
Mar 8
Full

Hourly Weather History & Observations

Time (CST) Temp. Windchill Dew Point Humidity Pressure Visibility Wind Dir Wind Speed Gust Speed Precip Events Conditions
12:14 AM 15.8 °F 6.1 °F 3.2 °F 58% 29.99 in 10.0 mi North 6.9 mph - N/A Snow Light Snow
12:34 AM 14.0 °F 2.0 °F 1.4 °F 57% 29.99 in 10.0 mi North 9.2 mph 17.3 mph N/A   Scattered Clouds
12:54 AM 14.0 °F 5.1 °F 1.4 °F 57% 30.00 in 10.0 mi North 5.8 mph - N/A   Clear
1:14 AM 12.2 °F 2.9 °F 1.4 °F 62% 30.02 in 10.0 mi North 5.8 mph - N/A   Clear
1:34 AM 12.2 °F 2.9 °F -0.4 °F 57% 30.03 in 10.0 mi North 5.8 mph - N/A   Clear
1:54 AM 10.4 °F 2.2 °F -2.2 °F 57% 30.04 in 10.0 mi North 4.6 mph - N/A   Clear
2:14 AM 8.6 °F -2.6 °F -5.8 °F 52% 30.05 in 10.0 mi North 6.9 mph - N/A   Clear
2:34 AM 6.8 °F -4.8 °F -9.4 °F 48% 30.07 in 10.0 mi North 6.9 mph 16.1 mph N/A   Clear
2:54 AM 5.0 °F -10.0 °F -11.2 °F 47% 30.08 in 10.0 mi NNE 10.4 mph 18.4 mph N/A   Clear
3:14 AM 3.2 °F -12.2 °F -11.2 °F 51% 30.09 in 10.0 mi North 10.4 mph 18.4 mph N/A   Clear
3:34 AM 3.2 °F -12.2 °F -13.0 °F 47% 30.09 in 10.0 mi North 10.4 mph 17.3 mph N/A   Clear
3:54 AM 1.4 °F -15.3 °F -13.0 °F 51% 30.10 in 10.0 mi NNE 11.5 mph 16.1 mph N/A   Clear
4:14 AM 1.4 °F -13.5 °F -13.0 °F 51% 30.11 in 10.0 mi North 9.2 mph - N/A   Clear
4:34 AM -0.4 °F -14.7 °F -13.0 °F 55% 30.12 in 10.0 mi North 8.1 mph 16.1 mph N/A   Clear
4:54 AM -0.4 °F -14.7 °F -14.8 °F 51% 30.14 in 10.0 mi North 8.1 mph - N/A   Clear
5:14 AM -0.4 °F -13.4 °F -14.8 °F 51% 30.15 in 10.0 mi NNE 6.9 mph - N/A   Clear
5:34 AM -2.2 °F -15.6 °F -14.8 °F 55% 30.16 in 10.0 mi NNE 6.9 mph - N/A   Clear
5:54 AM -2.2 °F -16.8 °F -14.8 °F 55% 30.17 in 10.0 mi North 8.1 mph 18.4 mph N/A   Clear
6:14 AM -2.2 °F -20.7 °F -14.8 °F 55% 30.18 in 10.0 mi North 12.7 mph 19.6 mph N/A   Clear
6:34 AM -4.0 °F -20.2 °F -14.8 °F 60% 30.19 in 10.0 mi North 9.2 mph 16.1 mph N/A   Clear
6:54 AM -4.0 °F -19.0 °F -16.6 °F 55% 30.20 in 10.0 mi North 8.1 mph 18.4 mph N/A   Clear
7:14 AM -5.8 °F -24.4 °F -16.6 °F 60% 30.22 in 10.0 mi North 11.5 mph 17.3 mph N/A   Clear
7:34 AM -5.8 °F -19.9 °F -16.6 °F 60% 30.23 in 10.0 mi North 6.9 mph 17.3 mph N/A   Clear
7:54 AM -5.8 °F -24.4 °F -18.4 °F 55% 30.24 in 10.0 mi North 11.5 mph 17.3 mph N/A   Clear
8:14 AM -5.8 °F -25.2 °F -20.2 °F 50% 30.26 in 10.0 mi North 12.7 mph 17.3 mph N/A   Clear
8:34 AM -4.0 °F -20.2 °F -20.2 °F 46% 30.27 in 10.0 mi North 9.2 mph - N/A   Clear
8:54 AM -2.2 °F -16.8 °F -20.2 °F 42% 30.27 in 10.0 mi North 8.1 mph 16.1 mph N/A   Clear
9:14 AM -0.4 °F -15.7 °F -22.0 °F 36% 30.27 in 10.0 mi North 9.2 mph 17.3 mph N/A   Clear
9:34 AM -0.4 °F -15.7 °F -22.0 °F 36% 30.27 in 10.0 mi North 9.2 mph - N/A   Clear
9:54 AM 1.4 °F -16.1 °F -22.0 °F 33% 30.28 in 10.0 mi North 12.7 mph 19.6 mph N/A   Clear
10:14 AM 1.4 °F -16.9 °F -22.0 °F 33% 30.28 in 10.0 mi North 13.8 mph 18.4 mph N/A   Clear
10:34 AM 3.2 °F -12.2 °F -22.0 °F 30% 30.28 in 10.0 mi NNW 10.4 mph 19.6 mph N/A   Clear
10:54 AM 5.0 °F -6.9 °F -22.0 °F 28% 30.28 in 10.0 mi North 6.9 mph 19.6 mph N/A   Clear
11:14 AM 6.8 °F -5.9 °F -18.4 °F 31% 30.28 in 10.0 mi North 8.1 mph - N/A   Clear
11:34 AM 6.8 °F -9.3 °F -18.4 °F 31% 30.29 in 10.0 mi NNW 12.7 mph 18.4 mph N/A   Clear
11:54 AM 8.6 °F -4.7 °F -18.4 °F 28% 30.28 in 10.0 mi NNW 9.2 mph 18.4 mph N/A   Clear
12:14 PM 10.4 °F -0.4 °F -18.4 °F 26% 30.28 in 10.0 mi NW 6.9 mph - N/A   Clear
12:34 PM 12.2 °F 0.7 °F -18.4 °F 24% 30.28 in 10.0 mi NW 8.1 mph - N/A   Clear
12:54 PM 14.0 °F 3.9 °F -20.2 °F 21% 30.28 in 10.0 mi NNW 6.9 mph - N/A   Clear
1:14 PM 15.8 °F 3.4 °F -22.0 °F 17% 30.28 in 10.0 mi North 10.4 mph 19.6 mph N/A   Clear
1:34 PM 14.0 °F 1.2 °F -23.8 °F 17% 30.28 in 10.0 mi NNW 10.4 mph - N/A   Clear
1:54 PM 14.0 °F 1.2 °F -23.8 °F 17% 30.29 in 10.0 mi NNW 10.4 mph 16.1 mph N/A   Clear
2:14 PM 15.8 °F 4.2 °F -23.8 °F 16% 30.29 in 10.0 mi NNW 9.2 mph 18.4 mph N/A   Clear
2:34 PM 14.0 °F 3.9 °F -25.6 °F 16% 30.28 in 10.0 mi North 6.9 mph - N/A   Clear
2:54 PM 14.0 °F 2.9 °F -25.6 °F 16% 30.29 in 10.0 mi NNW 8.1 mph 18.4 mph N/A   Clear
3:14 PM 14.0 °F 1.2 °F -25.6 °F 16% 30.29 in 10.0 mi North 10.4 mph 25.3 mph N/A   Clear
3:55 PM 12.2 °F -0.2 °F -27.4 °F 15% 30.29 in 10.0 mi North 9.2 mph 21.9 mph N/A   Clear
4:14 PM 12.2 °F 2.9 °F -25.6 °F 17% 30.30 in 10.0 mi NW 5.8 mph 18.4 mph N/A   Clear
4:34 PM 12.2 °F 1.7 °F -25.6 °F 17% 30.29 in 10.0 mi NW 6.9 mph - N/A   Clear
4:54 PM 10.4 °F -1.5 °F -23.8 °F 20% 30.30 in 10.0 mi NNW 8.1 mph - N/A   Mostly Cloudy
5:14 PM 8.6 °F -5.5 °F -23.8 °F 22% 30.30 in 10.0 mi NW 10.4 mph 19.6 mph N/A   Overcast
5:34 PM 8.6 °F -5.5 °F -23.8 °F 22% 30.29 in 10.0 mi NW 10.4 mph 17.3 mph N/A   Overcast
5:54 PM 8.6 °F -7.7 °F -23.8 °F 22% 30.29 in 10.0 mi NW 13.8 mph 20.7 mph N/A   Scattered Clouds
6:14 PM 6.8 °F -8.6 °F -22.0 °F 26% 30.29 in 10.0 mi NW 11.5 mph 21.9 mph N/A   Mostly Cloudy
6:34 PM 6.8 °F -9.3 °F -22.0 °F 26% 30.29 in 10.0 mi NW 12.7 mph 20.7 mph N/A   Overcast
6:54 PM 6.8 °F -9.3 °F -22.0 °F 26% 30.29 in 10.0 mi NW 12.7 mph 20.7 mph N/A   Overcast
7:14 PM 6.8 °F -10.7 °F -22.0 °F 26% 30.28 in 10.0 mi NW 15.0 mph 27.6 mph N/A   Overcast
7:34 PM 6.8 °F -10.7 °F -22.0 °F 26% 30.28 in 10.0 mi NNW 15.0 mph 27.6 mph N/A   Overcast
7:54 PM 5.0 °F -13.6 °F -20.2 °F 30% 30.27 in 10.0 mi NW 16.1 mph 33.4 mph N/A   Mostly Cloudy
8:14 PM 5.0 °F -10.8 °F -20.2 °F 30% 30.27 in 10.0 mi NNW 11.5 mph 25.3 mph N/A   Overcast
8:34 PM 5.0 °F -13.0 °F -20.2 °F 30% 30.28 in 10.0 mi NW 15.0 mph 28.8 mph N/A   Overcast
8:54 PM 5.0 °F -12.3 °F -20.2 °F 30% 30.30 in 10.0 mi NW 13.8 mph 32.2 mph N/A   Overcast
9:14 PM 3.2 °F -13.9 °F -20.2 °F 33% 30.29 in 10.0 mi NW 12.7 mph 24.2 mph N/A   Overcast
9:34 PM 3.2 °F -13.1 °F -18.4 °F 36% 30.31 in 10.0 mi NNW 11.5 mph 20.7 mph N/A   Overcast
9:54 PM 3.2 °F -14.6 °F -18.4 °F 36% 30.31 in 10.0 mi NW 13.8 mph 21.9 mph N/A   Overcast
10:14 PM 3.2 °F -14.6 °F -18.4 °F 36% 30.32 in 10.0 mi NW 13.8 mph 23.0 mph N/A   Overcast
10:34 PM 3.2 °F -12.2 °F -18.4 °F 36% 30.32 in 10.0 mi NW 10.4 mph 24.2 mph N/A   Overcast
10:54 PM 1.4 °F -16.1 °F -20.2 °F 36% 30.32 in 10.0 mi NW 12.7 mph 24.2 mph N/A   Overcast
11:14 PM 1.4 °F -16.1 °F -20.2 °F 36% 30.32 in 10.0 mi NW 12.7 mph 23.0 mph N/A   Overcast
11:34 PM 1.4 °F -17.6 °F -20.2 °F 36% 30.32 in 10.0 mi NW 15.0 mph 21.9 mph N/A   Overcast
11:54 PM 1.4 °F -14.5 °F -20.2 °F 36% 30.30 in 10.0 mi NW 10.4 mph 27.6 mph N/A   Overcast